Time,TemperatureF,DewpointF,PressureIn,WindDirection,WindDirectionDegrees,WindSpeedMPH,WindSpeedGustMPH,Humidity,HourlyPrecipIn,Conditions,Clouds,dailyrainin,SoftwareType,DateUTC
2013-06-09 00:02:00,69.6,46.1,29.91,NE,39,2.7,0.0,43,0.00,,,0.00,WeatherDisplay:10.36,2013-06-09 05:02:00,
2013-06-09 00:07:00,69.4,46.0,29.91,NE,39,0.0,0.0,43,0.00,,,0.00,WeatherDisplay:10.36,2013-06-09 05:07:00,
2013-06-09 00:12:00,69.4,46.0,29.91,NE,41,3.6,0.0,43,0.00,,,0.00,WeatherDisplay:10.36,2013-06-09 05:12:00,
2013-06-09 00:17:00,69.4,46.0,29.91,NE,38,3.5,3.5,43,0.00,,,0.00,WeatherDisplay:10.36,2013-06-09 05:17:00,
2013-06-09 00:22:00,69.4,46.0,29.91,NE,39,4.6,4.6,43,0.00,,,0.00,WeatherDisplay:10.36,2013-06-09 05:22:00,
2013-06-09 00:27:00,69.3,45.8,29.91,NE,40,4.0,4.0,43,0.00,,,0.00,WeatherDisplay:10.36,2013-06-09 05:27:00,
2013-06-09 00:32:00,69.3,45.8,29.91,NE,41,4.0,4.0,43,0.00,,,0.00,WeatherDisplay:10.36,2013-06-09 05:32:00,
2013-06-09 00:37:00,69.3,45.8,29.91,NE,42,4.9,4.9,43,0.00,,,0.00,WeatherDisplay:10.36,2013-06-09 05:37:00,
2013-06-09 00:42:00,69.3,45.8,29.88,NE,38,4.6,4.6,43,0.00,,,0.00,WeatherDisplay:10.36,2013-06-09 05:42:00,
2013-06-09 00:47:00,69.3,45.8,29.88,NE,41,6.3,6.3,43,0.00,,,0.00,WeatherDisplay:10.36,2013-06-09 05:47:00,
2013-06-09 00:52:00,69.3,45.8,29.88,NE,56,5.8,5.8,43,0.00,,,0.00,WeatherDisplay:10.36,2013-06-09 05:52:00,
2013-06-09 00:57:00,69.3,45.8,29.91,NE,40,6.9,6.9,43,0.00,,,0.00,WeatherDisplay:10.36,2013-06-09 05:57:00,
2013-06-09 01:02:00,69.3,45.8,29.91,NE,41,4.9,4.9,43,0.00,,,0.00,WeatherDisplay:10.36,2013-06-09 06:02:00,
2013-06-09 01:07:00,69.4,46.0,29.91,NE,43,6.9,6.9,43,0.00,,,0.00,WeatherDisplay:10.36,2013-06-09 06:07:00,
2013-06-09 01:12:00,69.4,46.0,29.88,NE,41,6.3,6.3,43,0.00,,,0.00,WeatherDisplay:10.36,2013-06-09 06:12:00,
2013-06-09 01:17:00,69.4,46.6,29.88,NE,39,6.9,6.9,44,0.00,,,0.00,WeatherDisplay:10.36,2013-06-09 06:17:00,
2013-06-09 01:22:00,69.3,46.4,29.88,NE,37,5.8,5.8,44,0.00,,,0.00,WeatherDisplay:10.36,2013-06-09 06:22:00,
2013-06-09 01:27:00,69.3,46.4,29.88,NE,39,8.3,8.3,44,0.00,,,0.00,WeatherDisplay:10.36,2013-06-09 06:27:00,
2013-06-09 01:32:00,69.3,46.4,29.88,NE,45,6.7,6.7,44,0.00,,,0.00,WeatherDisplay:10.36,2013-06-09 06:32:00,
2013-06-09 01:37:00,69.3,47.0,29.88,NE,41,10.4,10.4,45,0.00,,,0.00,WeatherDisplay:10.36,2013-06-09 06:37:00,
2013-06-09 01:42:00,69.3,47.0,29.88,NE,42,8.3,8.3,45,0.00,,,0.00,WeatherDisplay:10.36,2013-06-09 06:42:00,
2013-06-09 01:47:00,69.3,47.0,29.88,NE,39,7.4,7.4,45,0.00,,,0.00,WeatherDisplay:10.36,2013-06-09 06:47:00,
2013-06-09 01:52:00,69.3,47.6,29.88,NE,42,5.8,5.8,46,0.00,,,0.00,WeatherDisplay:10.36,2013-06-09 06:52:00,
2013-06-09 01:57:00,69.3,47.6,29.88,NE,42,9.2,9.2,46,0.00,,,0.00,WeatherDisplay:10.36,2013-06-09 06:57:00,
2013-06-09 02:02:00,69.3,48.2,29.88,NE,39,9.2,9.2,47,0.00,,,0.00,WeatherDisplay:10.36,2013-06-09 07:02:00,
2013-06-09 02:07:00,69.3,48.2,29.88,NE,40,6.3,6.3,47,0.00,,,0.00,WeatherDisplay:10.36,2013-06-09 07:07:00,
2013-06-09 02:12:00,69.3,48.2,29.88,NE,43,8.1,8.1,47,0.00,,,0.00,WeatherDisplay:10.36,2013-06-09 07:12:00,
2013-06-09 02:17:00,69.3,48.7,29.88,ENE,62,7.4,7.4,48,0.00,,,0.00,WeatherDisplay:10.36,2013-06-09 07:17:00,
2013-06-09 02:22:00,69.3,48.7,29.88,NE,36,8.1,8.1,48,0.00,,,0.00,WeatherDisplay:10.36,2013-06-09 07:22:00,
2013-06-09 02:27:00,69.3,48.7,29.88,NE,41,9.6,9.6,48,0.00,,,0.00,WeatherDisplay:10.36,2013-06-09 07:27:00,
2013-06-09 02:32:00,69.1,48.6,29.88,NE,42,7.4,7.4,48,0.00,,,0.00,WeatherDisplay:10.36,2013-06-09 07:32:00,
2013-06-09 02:37:00,69.1,48.6,29.88,NE,42,11.5,11.5,48,0.00,,,0.00,WeatherDisplay:10.36,2013-06-09 07:37:00,
2013-06-09 02:42:00,69.1,48.6,29.88,NE,42,9.2,9.2,48,0.00,,,0.00,WeatherDisplay:10.36,2013-06-09 07:42:00,
2013-06-09 02:47:00,69.1,49.1,29.88,NE,42,9.2,9.2,49,0.00,,,0.00,WeatherDisplay:10.36,2013-06-09 07:47:00,
2013-06-09 02:52:00,69.1,49.1,29.88,NE,42,10.4,10.4,49,0.00,,,0.00,WeatherDisplay:10.36,2013-06-09 07:52:00,
2013-06-09 02:57:00,68.9,48.9,29.88,NE,44,8.1,8.1,49,0.00,,,0.00,WeatherDisplay:10.36,2013-06-09 07:57:00,
2013-06-09 03:02:00,68.9,49.5,29.88,NE,42,10.4,10.4,50,0.00,,,0.00,WeatherDisplay:10.36,2013-06-09 08:02:00,
2013-06-09 03:07:00,68.9,49.5,29.88,NE,41,9.2,9.2,50,0.00,,,0.00,WeatherDisplay:10.36,2013-06-09 08:07:00,
2013-06-09 03:12:00,68.9,49.5,29.88,NE,40,10.5,10.5,50,0.00,,,0.00,WeatherDisplay:10.36,2013-06-09 08:12:00,
2013-06-09 03:17:00,69.1,49.7,29.88,NE,39,8.1,8.1,50,0.00,,,0.00,WeatherDisplay:10.36,2013-06-09 08:17:00,
2013-06-09 03:22:00,69.1,49.7,29.88,NE,42,7.4,7.4,50,0.00,,,0.00,WeatherDisplay:10.36,2013-06-09 08:22:00,
2013-06-09 03:27:00,69.1,49.7,29.85,NE,36,9.6,9.6,50,0.00,,,0.00,WeatherDisplay:10.36,2013-06-09 08:27:00,
2013-06-09 03:32:00,69.1,49.7,29.85,NE,47,6.9,6.9,50,0.00,,,0.00,WeatherDisplay:10.36,2013-06-09 08:32:00,
2013-06-09 03:37:00,69.1,49.7,29.85,NE,44,11.5,11.5,50,0.00,,,0.00,WeatherDisplay:10.36,2013-06-09 08:37:00,
2013-06-09 03:42:00,69.1,49.7,29.85,NE,51,10.4,10.4,50,0.00,,,0.00,WeatherDisplay:10.36,2013-06-09 08:42:00,
2013-06-09 03:47:00,69.1,49.7,29.85,NE,44,6.9,6.9,50,0.00,,,0.00,WeatherDisplay:10.36,2013-06-09 08:47:00,
2013-06-09 03:52:00,69.1,49.7,29.85,NE,43,9.2,9.2,50,0.00,,,0.00,WeatherDisplay:10.36,2013-06-09 08:52:00,
2013-06-09 03:57:00,69.1,49.7,29.85,NE,42,7.8,7.8,50,0.00,,,0.00,WeatherDisplay:10.36,2013-06-09 08:57:00,
2013-06-09 04:02:00,69.1,50.2,29.85,NE,43,7.4,7.4,51,0.00,,,0.00,WeatherDisplay:10.36,2013-06-09 09:02:00,
2013-06-09 04:07:00,69.1,50.2,29.85,NE,50,10.4,10.4,51,0.00,,,0.00,WeatherDisplay:10.36,2013-06-09 09:07:00,
2013-06-09 04:12:00,69.1,50.2,29.85,NE,42,6.3,6.3,51,0.00,,,0.00,WeatherDisplay:10.36,2013-06-09 09:12:00,
2013-06-09 04:17:00,69.1,50.2,29.85,NE,43,10.4,10.4,51,0.00,,,0.00,WeatherDisplay:10.36,2013-06-09 09:17:00,
2013-06-09 04:22:00,68.9,50.0,29.85,NE,41,9.2,0.0,51,0.00,,,0.00,WeatherDisplay:10.36,2013-06-09 09:22:00,
2013-06-09 04:27:00,68.9,50.0,29.85,NE,43,8.1,8.1,51,0.00,,,0.00,WeatherDisplay:10.36,2013-06-09 09:27:00,
2013-06-09 04:32:00,68.9,50.5,29.85,NE,40,9.2,9.2,52,0.00,,,0.00,WeatherDisplay:10.36,2013-06-09 09:32:00,
2013-06-09 04:37:00,68.9,50.5,29.85,NE,41,11.5,11.5,52,0.00,,,0.00,WeatherDisplay:10.36,2013-06-09 09:37:00,
2013-06-09 04:42:00,68.9,50.5,29.85,NE,43,7.8,7.8,52,0.00,,,0.00,WeatherDisplay:10.36,2013-06-09 09:42:00,
2013-06-09 04:47:00,68.9,50.0,29.85,NE,42,9.2,9.2,51,0.00,,,0.00,WeatherDisplay:10.36,2013-06-09 09:47:00,
2013-06-09 04:52:00,69.1,50.2,29.85,NE,42,15.0,15.0,51,0.00,,,0.00,WeatherDisplay:10.36,2013-06-09 09:52:00,
2013-06-09 04:57:00,69.1,50.2,29.85,NE,45,7.4,7.4,51,0.00,,,0.00,WeatherDisplay:10.36,2013-06-09 09:57:00,
2013-06-09 05:02:00,69.1,50.2,29.85,NE,43,5.8,5.8,51,0.00,,,0.00,WeatherDisplay:10.36,2013-06-09 10:02:00,
2013-06-09 05:07:00,69.1,50.2,29.85,NE,42,7.8,7.8,51,0.00,,,0.00,WeatherDisplay:10.36,2013-06-09 10:07:00,
2013-06-09 05:13:00,69.1,50.2,29.85,NE,44,10.5,10.5,51,0.00,,,0.00,WeatherDisplay:10.36,2013-06-09 10:13:00,
2013-06-09 05:19:00,69.1,50.2,29.85,NE,40,9.2,9.2,51,0.00,,,0.00,WeatherDisplay:10.36,2013-06-09 10:19:00,
2013-06-09 05:24:00,69.1,50.2,29.85,NE,37,6.9,6.9,51,0.00,,,0.00,WeatherDisplay:10.36,2013-06-09 10:24:00,
2013-06-09 05:29:00,68.9,50.0,29.85,NE,45,11.5,11.5,51,0.00,,,0.00,WeatherDisplay:10.36,2013-06-09 10:29:00,
2013-06-09 05:35:00,68.9,50.5,29.85,NE,45,7.4,7.4,52,0.00,,,0.00,WeatherDisplay:10.36,2013-06-09 10:35:00,
2013-06-09 05:40:00,68.9,50.5,29.85,NE,43,7.4,7.4,52,0.00,,,0.00,WeatherDisplay:10.36,2013-06-09 10:40:00,
2013-06-09 05:45:00,68.9,50.5,29.85,NE,42,7.4,7.4,52,0.00,,,0.00,WeatherDisplay:10.36,2013-06-09 10:45:00,
2013-06-09 05:50:00,68.9,50.5,29.85,NE,43,9.2,9.2,52,0.00,,,0.00,WeatherDisplay:10.36,2013-06-09 10:50:00,
2013-06-09 05:55:00,68.9,50.5,29.85,NE,42,9.2,9.2,52,0.00,,,0.00,WeatherDisplay:10.36,2013-06-09 10:55:00,
2013-06-09 06:00:00,68.9,50.5,29.85,NE,55,7.4,7.4,52,0.00,,,0.00,WeatherDisplay:10.36,2013-06-09 11:00:00,
2013-06-09 06:05:00,68.9,50.5,29.85,NE,39,6.9,6.9,52,0.00,,,0.00,WeatherDisplay:10.36,2013-06-09 11:05:00,
2013-06-09 06:10:00,68.7,50.9,29.85,NE,42,5.8,5.8,53,0.00,,,0.00,WeatherDisplay:10.36,2013-06-09 11:10:00,
2013-06-09 06:15:00,68.7,50.9,29.85,NE,44,9.2,9.2,53,0.00,,,0.00,WeatherDisplay:10.36,2013-06-09 11:15:00,
2013-06-09 06:21:00,68.9,51.1,29.85,NE,39,10.4,10.4,53,0.00,,,0.00,WeatherDisplay:10.36,2013-06-09 11:21:00,
2013-06-09 06:27:00,68.9,50.5,29.85,NE,42,9.2,9.2,52,0.00,,,0.00,WeatherDisplay:10.36,2013-06-09 11:27:00,
2013-06-09 06:32:00,68.9,50.5,29.85,NE,43,10.1,10.1,52,0.00,,,0.00,WeatherDisplay:10.36,2013-06-09 11:32:00,
2013-06-09 06:37:00,68.9,50.5,29.85,NE,43,9.2,9.2,52,0.00,,,0.00,WeatherDisplay:10.36,2013-06-09 11:37:00,
2013-06-09 06:43:00,68.9,50.5,29.85,NE,43,9.6,9.6,52,0.00,,,0.00,WeatherDisplay:10.36,2013-06-09 11:43:00,
2013-06-09 06:48:00,68.9,50.5,29.85,NE,43,9.2,9.2,52,0.00,,,0.00,WeatherDisplay:10.36,2013-06-09 11:48:00,
2013-06-09 06:53:00,68.9,50.5,29.85,NE,45,6.9,6.9,52,0.00,,,0.00,WeatherDisplay:10.36,2013-06-09 11:53:00,
2013-06-09 06:58:00,69.1,50.7,29.85,NE,47,7.4,7.4,52,0.00,,,0.00,WeatherDisplay:10.36,2013-06-09 11:58:00,
2013-06-09 07:03:00,69.1,50.7,29.85,NE,42,8.1,8.1,52,0.00,,,0.00,WeatherDisplay:10.36,2013-06-09 12:03:00,
2013-06-09 07:08:00,69.1,50.7,29.85,NE,41,8.3,8.3,52,0.00,,,0.00,WeatherDisplay:10.36,2013-06-09 12:08:00,
2013-06-09 07:13:00,69.1,50.7,29.85,NE,42,9.2,9.2,52,0.00,,,0.00,WeatherDisplay:10.36,2013-06-09 12:13:00,
2013-06-09 07:18:00,69.1,50.7,29.85,NE,43,6.7,6.7,52,0.00,,,0.00,WeatherDisplay:10.36,2013-06-09 12:18:00,
2013-06-09 07:23:00,69.1,51.2,29.85,NE,49,4.9,4.9,53,0.00,,,0.00,WeatherDisplay:10.36,2013-06-09 12:23:00,
2013-06-09 07:28:00,69.1,51.2,29.85,NE,39,6.9,6.9,53,0.00,,,0.00,WeatherDisplay:10.36,2013-06-09 12:28:00,
2013-06-09 07:33:00,68.9,51.1,29.85,NE,41,8.1,8.1,53,0.00,,,0.00,WeatherDisplay:10.36,2013-06-09 12:33:00,
2013-06-09 07:38:00,68.9,51.6,29.85,NE,43,9.6,9.6,54,0.00,,,0.00,WeatherDisplay:10.36,2013-06-09 12:38:00,
2013-06-09 07:43:00,69.1,51.7,29.85,NE,43,4.9,0.0,54,0.00,,,0.00,WeatherDisplay:10.36,2013-06-09 12:43:00,
2013-06-09 07:48:00,69.1,51.7,29.85,NE,43,6.9,6.9,54,0.00,,,0.00,WeatherDisplay:10.36,2013-06-09 12:48:00,
2013-06-09 07:53:00,69.1,51.7,29.85,NE,43,5.4,5.4,54,0.00,,,0.00,WeatherDisplay:10.36,2013-06-09 12:53:00,
2013-06-09 07:58:00,69.1,52.2,29.85,NE,42,7.4,7.4,55,0.00,,,0.00,WeatherDisplay:10.36,2013-06-09 12:58:00,
2013-06-09 08:03:00,69.1,52.2,29.85,NE,42,3.5,0.0,55,0.00,,,0.00,WeatherDisplay:10.36,2013-06-09 13:03:00,
2013-06-09 08:08:00,69.1,52.2,29.85,NE,42,3.6,0.0,55,0.00,,,0.00,WeatherDisplay:10.36,2013-06-09 13:08:00,
2013-06-09 08:13:00,69.1,52.7,29.85,NE,41,8.1,8.1,56,0.00,,,0.00,WeatherDisplay:10.36,2013-06-09 13:13:00,
2013-06-09 08:18:00,69.3,53.4,29.85,NE,43,0.0,0.0,57,0.00,,,0.00,WeatherDisplay:10.36,2013-06-09 13:18:00,
2013-06-09 08:23:00,69.4,53.5,29.85,NE,43,7.4,0.0,57,0.00,,,0.00,WeatherDisplay:10.36,2013-06-09 13:23:00,
2013-06-09 08:28:00,69.6,53.7,29.85,NE,41,6.9,6.9,57,0.00,,,0.00,WeatherDisplay:10.36,2013-06-09 13:28:00,
2013-06-09 08:33:00,69.8,53.9,29.85,NE,43,6.3,0.0,57,0.00,,,0.00,WeatherDisplay:10.36,2013-06-09 13:33:00,
2013-06-09 08:38:00,70.0,53.6,29.85,NE,50,7.4,7.4,56,0.00,,,0.00,WeatherDisplay:10.36,2013-06-09 13:38:00,
2013-06-09 08:43:00,70.2,53.7,29.85,NE,42,0.0,0.0,56,0.00,,,0.00,WeatherDisplay:10.36,2013-06-09 13:43:00,
2013-06-09 08:48:00,70.3,53.4,29.85,NE,42,8.1,8.1,55,0.00,,,0.00,WeatherDisplay:10.36,2013-06-09 13:48:00,
2013-06-09 08:53:00,70.5,53.6,29.85,NE,43,5.8,0.0,55,0.00,,,0.00,WeatherDisplay:10.36,2013-06-09 13:53:00,
2013-06-09 08:58:00,70.7,53.2,29.88,NE,44,4.6,0.0,54,0.00,,,0.00,WeatherDisplay:10.36,2013-06-09 13:58:00,
2013-06-09 09:03:00,70.9,53.4,29.88,NE,46,6.9,6.9,54,0.00,,,0.00,WeatherDisplay:10.36,2013-06-09 14:03:00,
2013-06-09 09:08:00,70.9,52.9,29.88,NE,41,4.9,0.0,53,0.00,,,0.00,WeatherDisplay:10.36,2013-06-09 14:08:00,
2013-06-09 09:13:00,70.9,52.9,29.88,NE,44,5.4,0.0,53,0.00,,,0.00,WeatherDisplay:10.36,2013-06-09 14:13:00,
2013-06-09 09:18:00,70.9,52.9,29.88,NE,42,0.0,0.0,53,0.00,,,0.00,WeatherDisplay:10.36,2013-06-09 14:18:00,
2013-06-09 09:23:00,70.9,52.9,29.88,NE,41,6.3,6.3,53,0.00,,,0.00,WeatherDisplay:10.36,2013-06-09 14:23:00,
2013-06-09 09:28:00,71.1,53.1,29.85,NE,42,4.6,0.0,53,0.00,,,0.00,WeatherDisplay:10.36,2013-06-09 14:28:00,
2013-06-09 09:33:00,71.2,53.2,29.85,NE,44,2.3,0.0,53,0.00,,,0.00,WeatherDisplay:10.36,2013-06-09 14:33:00,
2013-06-09 09:38:00,71.4,53.4,29.85,NE,43,5.8,5.8,53,0.00,,,0.00,WeatherDisplay:10.36,2013-06-09 14:38:00,
2013-06-09 09:43:00,72.0,54.4,29.85,NE,42,6.9,6.9,54,0.00,,,0.00,WeatherDisplay:10.36,2013-06-09 14:43:00,
2013-06-09 09:48:00,72.3,54.2,29.85,NE,42,6.7,6.7,53,0.00,,,0.00,WeatherDisplay:10.36,2013-06-09 14:48:00,
2013-06-09 09:53:00,72.9,54.2,29.85,NE,41,6.7,6.7,52,0.00,,,0.00,WeatherDisplay:10.36,2013-06-09 14:53:00,
2013-06-09 09:58:00,73.2,53.5,29.85,NE,43,5.8,5.8,50,0.00,,,0.00,WeatherDisplay:10.36,2013-06-09 14:58:00,
2013-06-09 10:03:00,73.2,52.9,29.85,NE,39,8.3,8.3,49,0.00,,,0.00,WeatherDisplay:10.36,2013-06-09 15:03:00,
2013-06-09 10:08:00,73.2,52.9,29.85,NE,41,6.3,6.3,49,0.00,,,0.00,WeatherDisplay:10.36,2013-06-09 15:08:00,
2013-06-09 10:13:00,73.2,52.9,29.85,NE,42,6.9,6.9,49,0.00,,,0.00,WeatherDisplay:10.36,2013-06-09 15:13:00,
2013-06-09 10:18:00,73.2,52.9,29.85,NE,44,4.9,4.9,49,0.00,,,0.00,WeatherDisplay:10.36,2013-06-09 15:18:00,
2013-06-09 10:23:00,73.4,53.1,29.85,NE,42,5.8,5.8,49,0.00,,,0.00,WeatherDisplay:10.36,2013-06-09 15:23:00,
2013-06-09 10:28:00,73.4,53.6,29.85,NE,43,5.8,5.8,50,0.00,,,0.00,WeatherDisplay:10.36,2013-06-09 15:28:00,
2013-06-09 10:33:00,73.4,53.6,29.85,NE,44,5.8,5.8,50,0.00,,,0.00,WeatherDisplay:10.36,2013-06-09 15:33:00,
2013-06-09 10:38:00,73.4,53.6,29.85,NE,43,7.4,7.4,50,0.00,,,0.00,WeatherDisplay:10.36,2013-06-09 15:38:00,
2013-06-09 10:43:00,73.2,53.5,29.85,NE,43,4.0,4.0,50,0.00,,,0.00,WeatherDisplay:10.36,2013-06-09 15:43:00,
2013-06-09 10:48:00,73.2,53.5,29.85,NE,43,0.0,0.0,50,0.00,,,0.00,WeatherDisplay:10.36,2013-06-09 15:48:00,
2013-06-09 10:53:00,73.2,53.5,29.85,NE,42,3.5,0.0,50,0.00,,,0.00,WeatherDisplay:10.36,2013-06-09 15:53:00,
2013-06-09 10:58:00,73.0,53.3,29.85,NE,42,3.5,0.0,50,0.00,,,0.00,WeatherDisplay:10.36,2013-06-09 15:58:00,
2013-06-09 11:03:00,72.9,53.7,29.85,NE,43,4.6,4.6,51,0.00,,,0.00,WeatherDisplay:10.36,2013-06-09 16:03:00,
2013-06-09 11:08:00,72.5,53.3,29.85,NE,42,4.6,4.6,51,0.00,,,0.00,WeatherDisplay:10.36,2013-06-09 16:08:00,
2013-06-09 11:13:00,72.5,53.9,29.85,NE,43,3.1,0.0,52,0.00,,,0.00,WeatherDisplay:10.36,2013-06-09 16:13:00,
2013-06-09 11:18:00,72.5,53.9,29.85,NE,41,8.3,8.3,52,0.00,,,0.00,WeatherDisplay:10.36,2013-06-09 16:18:00,
2013-06-09 11:23:00,72.3,54.2,29.85,NE,45,8.3,8.3,53,0.00,,,0.00,WeatherDisplay:10.36,2013-06-09 16:23:00,
2013-06-09 11:28:00,72.1,54.6,29.85,ENE,68,4.6,0.0,54,0.00,,,0.00,WeatherDisplay:10.36,2013-06-09 16:28:00,
2013-06-09 11:33:00,72.0,54.4,29.85,NE,43,4.9,4.9,54,0.00,,,0.00,WeatherDisplay:10.36,2013-06-09 16:33:00,
2013-06-09 11:38:00,71.6,54.6,29.85,NE,43,0.0,0.0,55,0.00,,,0.00,WeatherDisplay:10.36,2013-06-09 16:38:00,
2013-06-09 11:43:00,71.4,54.4,29.85,NE,41,2.7,0.0,55,0.00,,,0.00,WeatherDisplay:10.36,2013-06-09 16:43:00,
2013-06-09 11:48:00,71.2,54.7,29.85,NE,41,4.9,0.0,56,0.00,,,0.00,WeatherDisplay:10.36,2013-06-09 16:48:00,
2013-06-09 11:53:00,71.2,55.7,29.85,NE,42,2.3,0.0,58,0.00,,,0.00,WeatherDisplay:10.36,2013-06-09 16:53:00,
2013-06-09 11:58:00,71.1,56.0,29.85,NE,39,3.6,0.0,59,0.00,,,0.00,WeatherDisplay:10.36,2013-06-09 16:58:00,
2013-06-09 12:03:00,70.9,55.8,29.85,NE,41,4.9,4.9,59,0.00,,,0.00,WeatherDisplay:10.36,2013-06-09 17:03:00,
2013-06-09 12:08:00,70.7,56.6,29.85,NE,41,4.6,4.6,61,0.00,,,0.00,WeatherDisplay:10.36,2013-06-09 17:08:00,
2013-06-09 12:13:00,70.5,56.4,29.88,NE,42,4.0,4.0,61,0.00,,,0.00,WeatherDisplay:10.36,2013-06-09 17:13:00,
2013-06-09 12:18:00,70.5,56.9,29.88,NE,41,3.6,3.6,62,0.00,,,0.00,WeatherDisplay:10.36,2013-06-09 17:18:00,
2013-06-09 12:23:00,70.5,57.3,29.88,NE,42,2.7,0.0,63,0.00,,,0.00,WeatherDisplay:10.36,2013-06-09 17:23:00,
2013-06-09 12:28:00,70.3,57.1,29.85,NE,41,4.9,4.9,63,0.00,,,0.00,WeatherDisplay:10.36,2013-06-09 17:28:00,
2013-06-09 12:33:00,70.2,57.4,29.85,NE,43,3.6,3.6,64,0.00,,,0.00,WeatherDisplay:10.36,2013-06-09 17:33:00,
2013-06-09 12:38:00,70.2,57.8,29.85,NE,42,5.8,5.8,65,0.00,,,0.00,WeatherDisplay:10.36,2013-06-09 17:38:00,
2013-06-09 12:43:00,70.2,58.3,29.85,NE,47,3.5,3.5,66,0.00,,,0.00,WeatherDisplay:10.36,2013-06-09 17:43:00,
2013-06-09 12:48:00,70.2,58.3,29.85,NE,43,4.0,4.0,66,0.00,,,0.00,WeatherDisplay:10.36,2013-06-09 17:48:00,
2013-06-09 12:53:00,70.0,58.5,29.85,NE,43,5.8,5.8,67,0.00,,,0.00,WeatherDisplay:10.36,2013-06-09 17:53:00,
2013-06-09 12:58:00,70.0,58.5,29.85,NE,42,5.8,5.8,67,0.00,,,0.00,WeatherDisplay:10.36,2013-06-09 17:58:00,
2013-06-09 13:03:00,70.0,58.5,29.85,NE,43,6.9,6.9,67,0.00,,,0.00,WeatherDisplay:10.36,2013-06-09 18:03:00,
2013-06-09 13:08:00,70.0,58.9,29.85,NE,44,6.3,6.3,68,0.00,,,0.00,WeatherDisplay:10.36,2013-06-09 18:08:00,
2013-06-09 13:13:00,70.0,58.9,29.85,NE,44,6.9,6.9,68,0.00,,,0.00,WeatherDisplay:10.36,2013-06-09 18:13:00,
2013-06-09 13:18:00,69.8,58.8,29.85,NE,40,4.6,4.6,68,0.00,,,0.00,WeatherDisplay:10.36,2013-06-09 18:18:00,
2013-06-09 13:23:00,69.6,58.6,29.85,NE,45,4.6,4.6,68,0.00,,,0.00,WeatherDisplay:10.36,2013-06-09 18:23:00,
2013-06-09 13:26:00,69.6,59.0,29.85,NE,44,5.4,5.4,69,0.00,,,0.00,WeatherDisplay:10.36,2013-06-09 18:26:00,